Skip Page Navigation
NASA JPL Caltech
NASA Logo - Jet Propulsion Laboratory + View the NASA Portal
+ Center for Near-Earth Object Studies
JPL Home Earth Solar System Stars & Galaxies Technology
JPL Solar System Dynamics
BODIES ORBITS EPHEMERIDES TOOLS PHYSICAL DATA DISCOVERY FAQ SITE MAP
IMPORTANT: The SSD Announcement email list is now available. Major changes are coming in the near future, including possible hostname and/or URL changes. To be notified of such changes, subscribe to this email list.

Please visit this page for more details.


JPL Small-Body Database Browser
Search: [ help ]  
1229 Tilia (1931 TP1)
Classification: Outer Main-belt Asteroid          SPK-ID: 2001229
Ephemeris | Orbit Diagram | Orbital Elements | Mission Design | Physical Parameters | Discovery Circumstances | Close-Approach Data ]

[ hide orbit diagram ]

For accurate long-term ephemerides, please instead use our Horizons system.This orbit viewer was implemented using two-body methods, and hence should not be used for determining accurate long-term trajectories (over several years or decades) or planetary encounter circumstances.


[ revert to old Java-based viewer ]

Orbital Elements at Epoch 2459000.5 (2020-May-31.0) TDB
Reference: JPL 35 (heliocentric ecliptic J2000)
 Element Value Uncertainty (1-sigma)   Units 
e .1658905932214843 3.386e-08  
a 3.226197058833134 1.3231e-08 au
q 2.691001314893898 1.1218e-07 au
i 1.039164606352266 3.7585e-06 deg
node 197.3569848342003 0.00018244 deg
peri 166.5829504664121 0.00018269 deg
M 94.08560625480689 9.8696e-06 deg
tp 2458447.334036195957
(2018-Nov-24.83403620)
5.7269e-05 TDB
period 2116.580366502993
5.79
1.302e-05
3.565e-08
d
yr
n .1700856748448398 1.0463e-09 deg/d
Q 3.761392802772371 1.5426e-08 au
  Orbit Determination Parameters
   # obs. used (total)      3086  
   data-arc span      32343 days (88.55 yr)  
   first obs. used      1931-10-06  
   last obs. used      2020-04-24  
   planetary ephem.      DE431  
   SB-pert. ephem.      SB431-N16  
   condition code      0  
   norm. resid. RMS      .43795  
   source      ORB  
   producer      Otto Matic  
   solution date      2020-May-20 01:21:04  

Additional Information
 Earth MOID = 1.68888 au 
 Jupiter MOID = 1.70089 au 
 T_jup = 3.166 
[ show covariance matrix ]

Ephemeris | Orbit Diagram | Orbital Elements | Mission Design | Physical Parameters | Discovery Circumstances | Close-Approach Data ]

Physical Parameter Table
Parameter Symbol Value Units Sigma Reference Notes
absolute magnitude H 11.3   n/a MPO250207  
diameter diameter 27.795 km 0.276 urn:nasa:pds:neowise_diameters_albedos::2.0[mainbelt] (http://adsabs.harvard.edu/abs/2011ApJ...741...68M)  
rotation period rot_per 7.035 h n/a LCDB (Rev. 2019-August); Warner et al., 2009 Published Reference List:
[Contreras, M.E.; Olguin, L.; Loera-Gonzalez, L.; Saucedo, J.C.; et al. (2019) Minor Planet Bull. 46-4, in press.]
[Klinglesmith III, D.A.; Lovato, E.A. (2019) Minor Planet Bull. 46, 81-82.]
[Noschese, A.; Vecchione, A. (2019) Minor Planet Bull. 46, 77.]
[Owings, L.E. (2019) Minor Planet Bull. 46, 272-274.]
geometric albedo albedo 0.069   0.008 urn:nasa:pds:neowise_diameters_albedos::2.0[mainbelt] (http://adsabs.harvard.edu/abs/2011ApJ...741...68M)  

1229 Tilia (1931 TP1)          Discovered 1931-Oct-09 by Reinmuth, K. at Heidelberg
Reference: DISCOVERY.DBLast Updated: 2003-08-29

[ show close-approach data ]
Alternate Designations
 1931 TP1 = 1936 MC = 1942 PH = 1948 PT = 1951 AC = 1951 CM = 1973 YW3 = 1975 FP = 1976 KB1 = 1977 RC4 = 1978 VK4 
Ephemeris | Orbit Diagram | Orbital Elements | Mission Design | Physical Parameters | Discovery Circumstances | Close-Approach Data ]
ABOUT SSD CREDITS/AWARDS PRIVACY/COPYRIGHT GLOSSARY LINKS
FirstGov 2020-Jun-05 17:09 UT
(server date/time)  
NASA Home Page
Site Manager:   Ryan S. Park
Webmaster  Alan B. Chamberlin